• In Hungary
  • List of Countries
  • For 7 days
  • Water Temperature
  • Satellite Maps
  • Weather Map
  • News
  • Weather Widgets
  • user-avatar
    Login

    Hourly Weather Staunton

    Today, 16 January, Tuesday

    Time Temperature Precipitation Wind Pressure Humidity
    00:00 -4°C° 0 mm 1 mps 730 mmHg 40%
    01:00 -4°C° 0 mm 1 mps 730 mmHg 40%
    02:00 -4°C° 0 mm 1 mps 729 mmHg 40%
    03:00 -4°C° 0 mm 1 mps 729 mmHg 40%
    04:00 -4°C° 0 mm 1 mps 729 mmHg 40%
    05:00 -4°C° 0 mm 1 mps 729 mmHg 42%
    06:00 -4°C° 0 mm 1 mps 729 mmHg 43%
    07:00 -4°C° 0 mm 1 mps 729 mmHg 44%
    08:00 -2°C° 0 mm 1 mps 729 mmHg 41%
    09:00 -1°C° 0 mm 1 mps 730 mmHg 38%
    10:00 +1°C° 0 mm 1 mps 730 mmHg 35%
    11:00 +2°C° 0 mm 1 mps 730 mmHg 36%
    12:00 +3°C° 0 mm 2 mps 729 mmHg 37%
    13:00 +4°C° 0 mm 2 mps 729 mmHg 38%
    14:00 +4°C° 0 mm 2 mps 729 mmHg 41%
    15:00 +4°C° 0 mm 1 mps 728 mmHg 45%
    16:00 +4°C° 0 mm 1 mps 728 mmHg 48%
    17:00 +3°C° 0.1 mm 1 mps 728 mmHg 52%
    18:00 +2°C° 0.1 mm 1 mps 728 mmHg 55%
    19:00 0°C° 0.1 mm 0 mps 728 mmHg 59%
    20:00 -1°C° 0 mm 0 mps 728 mmHg 61%
    21:00 -1°C° 0 mm 0 mps 728 mmHg 63%
    22:00 -1°C° 0 mm 0 mps 728 mmHg 65%
    23:00 -2°C° 0.1 mm 0 mps 727 mmHg 68%

    Tomorrow, 17 January, Wednesday

    Time Temperature Precipitation Wind Pressure Humidity
    00:00 -2°C° 0.1 mm 0 mps 727 mmHg 70%
    01:00 -1°C° 0.1 mm 1 mps 727 mmHg 73%
    02:00 -1°C° 0.2 mm 1 mps 727 mmHg 77%
    03:00 -2°C° 0.2 mm 1 mps 727 mmHg 82%
    04:00 -2°C° 0.2 mm 1 mps 727 mmHg 87%
    05:00 -2°C° 0.5 mm 1 mps 727 mmHg 86%
    06:00 -5°C° 0.5 mm 2 mps 727 mmHg 86%
    07:00 -5°C° 0.5 mm 2 mps 727 mmHg 85%
    08:00 -5°C° 0.2 mm 2 mps 727 mmHg 77%
    09:00 -5°C° 0.2 mm 2 mps 728 mmHg 69%
    10:00 -5°C° 0.2 mm 2 mps 728 mmHg 61%
    11:00 -6°C° 0 mm 3 mps 728 mmHg 55%
    12:00 -6°C° 0 mm 3 mps 727 mmHg 49%
    13:00 -5°C° 0 mm 3 mps 727 mmHg 43%
    14:00 -7°C° 0 mm 4 mps 727 mmHg 45%
    15:00 -7°C° 0 mm 4 mps 726 mmHg 47%
    16:00 -8°C° 0 mm 4 mps 726 mmHg 49%
    17:00 -9°C° 0 mm 4 mps 726 mmHg 54%
    18:00 -9°C° 0 mm 3 mps 726 mmHg 60%
    19:00 -12°C° 0 mm 3 mps 726 mmHg 66%
    20:00 -12°C° 0 mm 3 mps 726 mmHg 66%
    21:00 -12°C° 0 mm 3 mps 726 mmHg 67%
    22:00 -12°C° 0 mm 3 mps 726 mmHg 68%
    23:00 -12°C° 0 mm 3 mps 726 mmHg 67%

    Day after tomorrow, 18 January, Thursday

    Time Temperature Precipitation Wind Pressure Humidity
    00:00 -10°C° 0 mm 2 mps 726 mmHg 67%
    01:00 -9°C° 0 mm 2 mps 725 mmHg 66%
    02:00 -9°C° 0 mm 2 mps 725 mmHg 65%
    03:00 -9°C° 0 mm 2 mps 725 mmHg 64%
    04:00 -9°C° 0 mm 2 mps 725 mmHg 64%
    05:00 -9°C° 0 mm 2 mps 725 mmHg 62%
    06:00 -9°C° 0 mm 2 mps 725 mmHg 61%
    07:00 -9°C° 0 mm 2 mps 725 mmHg 60%
    08:00 -8°C° 0 mm 3 mps 725 mmHg 52%
    09:00 -6°C° 0 mm 3 mps 726 mmHg 43%
    10:00 -2°C° 0 mm 3 mps 726 mmHg 35%
    11:00 -1°C° 0 mm 3 mps 726 mmHg 33%
    12:00 +1°C° 0 mm 3 mps 725 mmHg 32%
    13:00 +3°C° 0 mm 3 mps 725 mmHg 30%
    14:00 +3°C° 0 mm 3 mps 724 mmHg 34%
    15:00 +3°C° 0 mm 3 mps 724 mmHg 37%
    16:00 +4°C° 0 mm 2 mps 723 mmHg 40%
    17:00 +2°C° 0 mm 2 mps 723 mmHg 46%
    18:00 -1°C° 0 mm 2 mps 723 mmHg 51%
    19:00 -3°C° 0 mm 2 mps 723 mmHg 57%
    20:00 -3°C° 0 mm 2 mps 723 mmHg 56%
    21:00 -4°C° 0 mm 2 mps 723 mmHg 55%
    22:00 -4°C° 0 mm 2 mps 723 mmHg 54%
    23:00 -4°C° 0 mm 2 mps 723 mmHg 54%

    19 January, Friday

    Time Temperature Precipitation Wind Pressure Humidity
    00:00 -4°C° 0 mm 2 mps 722 mmHg 53%
    01:00 -4°C° 0 mm 2 mps 722 mmHg 52%
    02:00 -4°C° 0 mm 2 mps 722 mmHg 52%
    03:00 -4°C° 0 mm 2 mps 722 mmHg 53%
    04:00 -5°C° 0 mm 2 mps 722 mmHg 53%
    05:00 -5°C° 0 mm 2 mps 722 mmHg 53%
    06:00 -5°C° 0 mm 2 mps 723 mmHg 54%
    07:00 -5°C° 0 mm 2 mps 723 mmHg 54%
    08:00 -3°C° 0 mm 2 mps 723 mmHg 50%
    09:00 -1°C° 0 mm 2 mps 723 mmHg 46%
    10:00 +2°C° 0 mm 2 mps 724 mmHg 42%
    11:00 +4°C° 0 mm 2 mps 723 mmHg 41%
    12:00 +6°C° 0 mm 2 mps 723 mmHg 39%
    13:00 +7°C° 0 mm 3 mps 723 mmHg 38%
    14:00 +7°C° 0 mm 2 mps 723 mmHg 42%
    15:00 +7°C° 0 mm 2 mps 723 mmHg 47%
    16:00 +8°C° 0 mm 1 mps 722 mmHg 52%
    17:00 +6°C° 0 mm 1 mps 723 mmHg 58%
    18:00 +3°C° 0 mm 1 mps 723 mmHg 64%
    19:00 +1°C° 0 mm 1 mps 723 mmHg 70%
    20:00 +1°C° 0 mm 1 mps 723 mmHg 70%
    21:00 +1°C° 0 mm 1 mps 723 mmHg 71%
    22:00 0°C° 0 mm 1 mps 724 mmHg 72%
    23:00 0°C° 0 mm 1 mps 724 mmHg 72%

    20 January, Saturday

    Time Temperature Precipitation Wind Pressure Humidity
    00:00 0°C° 0 mm 1 mps 724 mmHg 73%
    01:00 0°C° 0 mm 1 mps 723 mmHg 73%
    02:00 0°C° 0 mm 1 mps 724 mmHg 73%
    03:00 0°C° 0 mm 1 mps 724 mmHg 73%
    04:00 0°C° 0 mm 1 mps 724 mmHg 73%
    05:00 0°C° 0 mm 1 mps 724 mmHg 73%
    06:00 0°C° 0 mm 1 mps 724 mmHg 73%
    07:00 -2°C° 0 mm 2 mps 724 mmHg 73%
    08:00 +2°C° 0 mm 2 mps 725 mmHg 68%
    09:00 +4°C° 0 mm 2 mps 725 mmHg 63%
    10:00 +6°C° 0 mm 2 mps 725 mmHg 58%
    11:00 +8°C° 0 mm 2 mps 725 mmHg 57%
    12:00 +10°C° 0 mm 3 mps 725 mmHg 57%
    13:00 +11°C° 0 mm 3 mps 725 mmHg 56%
    14:00 +11°C° 0 mm 3 mps 725 mmHg 63%
    15:00 +10°C° 0 mm 2 mps 724 mmHg 69%
    16:00 +10°C° 0 mm 2 mps 724 mmHg 76%
    17:00 +8°C° 0 mm 2 mps 725 mmHg 81%
    18:00 +6°C° 0 mm 2 mps 725 mmHg 86%
    19:00 +4°C° 0 mm 2 mps 725 mmHg 92%
    20:00 +3°C° 0 mm 2 mps 725 mmHg 92%
    21:00 +3°C° 0 mm 2 mps 725 mmHg 93%
    22:00 +3°C° 0 mm 2 mps 725 mmHg 93%
    23:00 +3°C° 0 mm 2 mps 725 mmHg 94%

    21 January, Sunday

    Time Temperature Precipitation Wind Pressure Humidity
    00:00 +2°C° 0 mm 2 mps 725 mmHg 94%
    01:00 +3°C° 0 mm 1 mps 725 mmHg 94%
    02:00 +3°C° 0 mm 1 mps 725 mmHg 93%
    03:00 +3°C° 0 mm 1 mps 725 mmHg 93%
    04:00 +4°C° 0 mm 1 mps 725 mmHg 93%
    05:00 +4°C° 0 mm 1 mps 725 mmHg 92%
    06:00 +4°C° 0 mm 1 mps 725 mmHg 92%
    07:00 +4°C° 0 mm 1 mps 725 mmHg 92%
    08:00 +6°C° 0 mm 1 mps 726 mmHg 86%
    09:00 +8°C° 0 mm 1 mps 726 mmHg 81%
    10:00 +10°C° 0 mm 1 mps 726 mmHg 76%
    11:00 +12°C° 0 mm 1 mps 726 mmHg 71%
    12:00 +13°C° 0 mm 1 mps 726 mmHg 66%
    13:00 +15°C° 0 mm 2 mps 725 mmHg 61%
    14:00 +14°C° 0 mm 2 mps 725 mmHg 66%
    15:00 +14°C° 0 mm 2 mps 725 mmHg 70%
    16:00 +13°C° 0 mm 1 mps 725 mmHg 74%
    17:00 +11°C° 0 mm 1 mps 725 mmHg 79%
    18:00 +9°C° 0 mm 1 mps 724 mmHg 85%
    19:00 +7°C° 0 mm 1 mps 724 mmHg 90%
    20:00 +7°C° 0 mm 1 mps 724 mmHg 90%
    21:00 +7°C° 0 mm 1 mps 724 mmHg 91%
    22:00 +6°C° 0 mm 1 mps 724 mmHg 91%
    23:00 +5°C° 0 mm 2 mps 723 mmHg 91%
    Show more